(86680) = 2000 FG31

Discovered at Socorro on 2000-03-28 by LINEAR.

Orbit

Orbit type: Main Belt

Note: WebGL enabled browser required.

epoch2024-03-31.0
epoch JD2460400.5
perihelion date2020-06-07.54112
perihelion JD2459008.04112
argument of perihelion (°)117.00979
ascending node (°)31.53380
inclination (°)13.15592
eccentricity0.2600893
perihelion distance (AU)1.8895427
Tisserand w.r.t. Jupiter3.4
ΔV w.r.t. Earth (km/sec)9.5
semimajor axis (AU)2.5537444
mean anomaly (°)336.29475
mean daily motion (°/day)0.24151140
aphelion distance (AU)3.218
period (years)4.08
P-vector [x]-0.84080808
P-vector [y]0.37984216
P-vector [z]0.38569640
Q-vector [x]-0.52808351
Q-vector [y]-0.73220996
Q-vector [z]-0.43011205
absolute magnitude16.02
phase slope0.15
uncertainty0
referenceMPEC 2024-F62
observations used604
oppositions14
arc length (days)11683
first opposition used1992
last opposition used2024
residual rms (arc-secs)0.67
perturbers coarse indicatorM-v
perturbers precise indicator003Ek
first observation date used1992-03-25.0
last observation date used2024-03-20.0
computer nameMPCLINUX
JD of orbit computation2456937.420942
perihelion JD uncertainty (days)6.5341E-05
argument of perihelion uncertainty (°)3.2840E-05
ascending node uncertainty (°)3.0685E-05
inclination uncertainty (°)6.6201E-06
eccentricity uncertainty 2.0233E-07
perihelion distance uncertainty (AU)5.3339E-07
Minimum Orbit Intersection Distances (in AU)
for orbit epoch: 2460400.5, reference: E2024-F62
Mercury1.53074
Venus1.18277
Earth0.93904
Mars0.33762
Jupiter1.89496
Saturn6.45031
Uranus16.5026
Neptune26.8076

Observations

613 total observations over interval: 1992 03 25.44505 – 2024 03 20.122784
These data are available for download (format description).

Date (UT) J2000 RA J2000 Dec Magn Location Ref
1992 03 25.44505 13 55 16.77 -04 45 02.6   691 – Steward Observatory, Kitt Peak-Spacewatch MPS 22338
1992 03 25.46529 13 55 15.57 -04 45 06.9 20.2 V 691 – Steward Observatory, Kitt Peak-Spacewatch MPS 22338
1992 05 07.15879 13 10 47.21 -07 17 49.7 19.2 V 691 – Steward Observatory, Kitt Peak-Spacewatch MPS 22338
1992 05 07.18305 13 10 46.11 -07 17 56.3   691 – Steward Observatory, Kitt Peak-Spacewatch MPS 22338
1992 05 07.20730 13 10 45.02 -07 18 02.8   691 – Steward Observatory, Kitt Peak-Spacewatch MPS 22338
1996 04 13.15305 12 33 07.68 +05 04 39.2 17.9 V 691 – Steward Observatory, Kitt Peak-Spacewatch MPS 79664
1996 04 13.17454 12 33 06.34 +05 04 31.2 18.7 V 691 – Steward Observatory, Kitt Peak-Spacewatch MPS 79664
1996 04 13.19790 12 33 04.93 +05 04 23.0 17.9 V 691 – Steward Observatory, Kitt Peak-Spacewatch MPS 79664
1996 04 14.19560 12 32 07.08 +04 58 16.2 17.9 V 691 – Steward Observatory, Kitt Peak-Spacewatch MPS 79664
1996 04 14.22118 12 32 05.56 +04 58 06.7 17.9 V 691 – Steward Observatory, Kitt Peak-Spacewatch MPS 79664
1996 04 14.24267 12 32 04.27 +04 57 58.8 18.0 V 691 – Steward Observatory, Kitt Peak-Spacewatch MPS 79664
2000 03 04.31349 11 53 32.02 +22 01 30.5 17.6   704 – Lincoln Laboratory ETS, New Mexico MPS 12613
2000 03 04.32673 11 53 31.09 +22 01 29.4 17.6   704 – Lincoln Laboratory ETS, New Mexico MPS 12613
2000 03 04.33998 11 53 30.20 +22 01 28.8 17.7   704 – Lincoln Laboratory ETS, New Mexico MPS 12613
2000 03 04.35322 11 53 29.31 +22 01 27.8 17.6   704 – Lincoln Laboratory ETS, New Mexico MPS 12613
2000 03 04.36646 11 53 28.39 +22 01 26.7 17.9   704 – Lincoln Laboratory ETS, New Mexico MPS 12613
2000 03 12.40285 11 44 32.08 +21 42 33.9 17.0   704 – Lincoln Laboratory ETS, New Mexico MPS 12613
2000 03 12.41556 11 44 31.20 +21 42 31.2 17.5   704 – Lincoln Laboratory ETS, New Mexico MPS 12613
2000 03 12.42826 11 44 30.29 +21 42 28.3 17.2   704 – Lincoln Laboratory ETS, New Mexico MPS 12613
2000 03 12.44134 11 44 29.38 +21 42 25.6 17.1   704 – Lincoln Laboratory ETS, New Mexico MPS 12613
2000 03 12.45402 11 44 28.45 +21 42 23.0 17.1   704 – Lincoln Laboratory ETS, New Mexico MPS 12613
2000 03 26.24504 11 29 43.29 +20 21 48.0 17.1 R 699 – Lowell Observatory-LONEOS MPS 12613
2000 03 26.26643 11 29 42.03 +20 21 37.3   699 – Lowell Observatory-LONEOS MPS 12613
2000 03 26.28787 11 29 40.73 +20 21 28.0   699 – Lowell Observatory-LONEOS MPS 12613
2000 03 26.30935 11 29 39.41 +20 21 16.9   699 – Lowell Observatory-LONEOS MPS 12613
2000 03 28.19506 11 27 54.69 +20 05 40.7 17.5   704 – Lincoln Laboratory ETS, New Mexico MPS 12613
2000 03 28.23463 11 27 52.44 +20 05 21.4 18.6   704 – Lincoln Laboratory ETS, New Mexico MPS 12613
2000 03 28.25091 11 27 51.47 +20 05 12.6 17.8   704 – Lincoln Laboratory ETS, New Mexico MPS 12613
2000 03 28.26622 11 27 50.59 +20 05 04.7 18.7   704 – Lincoln Laboratory ETS, New Mexico MPS 12613
2000 04 04.27049 11 22 14.52 +18 58 43.3 16.7   704 – Lincoln Laboratory ETS, New Mexico MPS 12613
2000 04 04.28537 11 22 13.86 +18 58 33.9 17.3   704 – Lincoln Laboratory ETS, New Mexico MPS 12613
2000 04 04.30031 11 22 13.16 +18 58 25.2 17.6   704 – Lincoln Laboratory ETS, New Mexico MPS 12613
2000 04 04.31520 11 22 12.53 +18 58 14.9 17.0   704 – Lincoln Laboratory ETS, New Mexico MPS 12613
2000 04 04.33157 11 22 11.82 +18 58 04.5 17.1   704 – Lincoln Laboratory ETS, New Mexico MPS 12613
2000 04 08.12376 11 19 50.87 +18 17 15.3 18.5   704 – Lincoln Laboratory ETS, New Mexico MPS 12613
2000 04 08.13754 11 19 50.34 +18 17 06.5 18.8   704 – Lincoln Laboratory ETS, New Mexico MPS 12613
2000 04 08.15147 11 19 49.90 +18 16 57.3 18.8   704 – Lincoln Laboratory ETS, New Mexico MPS 12613
2000 04 08.16548 11 19 49.31 +18 16 48.7 18.9   704 – Lincoln Laboratory ETS, New Mexico MPS 12613
2000 04 08.17932 11 19 48.85 +18 16 37.0 18.9   704 – Lincoln Laboratory ETS, New Mexico MPS 12613
2003 12 18.48149 10 40 38.17 +29 46 38.7 19.1   704 – Lincoln Laboratory ETS, New Mexico MPS 93628
2003 12 18.49422 10 40 39.07 +29 46 40.8 19.6   704 – Lincoln Laboratory ETS, New Mexico MPS 93628
2003 12 18.50681 10 40 40.00 +29 46 42.7 19.6   704 – Lincoln Laboratory ETS, New Mexico MPS 93628
2003 12 18.51935 10 40 40.88 +29 46 44.3 19.5   704 – Lincoln Laboratory ETS, New Mexico MPS 93628
2004 01 02.33143 10 55 24.24 +30 39 09.6 18.4   704 – Lincoln Laboratory ETS, New Mexico MPS 96341
2004 01 02.34402 10 55 24.86 +30 39 14.2 19.1   704 – Lincoln Laboratory ETS, New Mexico MPS 96341
2004 01 02.35658 10 55 25.27 +30 39 18.4 18.9   704 – Lincoln Laboratory ETS, New Mexico MPS 96341
2004 01 02.38175 10 55 26.26 +30 39 26.2 19.0   704 – Lincoln Laboratory ETS, New Mexico MPS 96341
2004 01 17.44383 11 01 54.57 +32 02 37.3 18.0   644 – Palomar Mountain/NEAT MPS 96914
2004 01 17.46523 11 01 54.62 +32 02 45.3 17.9   644 – Palomar Mountain/NEAT MPS 96914
2004 01 17.48734 11 01 54.69 +32 02 53.4 17.8   644 – Palomar Mountain/NEAT MPS 96914
2004 01 30.34236 10 59 27.01 +33 21 29.0 19.2 V 703 – Catalina Sky Survey MPS 97657
2004 01 30.35953 10 59 26.21 +33 21 34.3 20.0 V 703 – Catalina Sky Survey MPS 97657
2004 01 30.37678 10 59 25.69 +33 21 40.4 19.3 V 703 – Catalina Sky Survey MPS 97657
2004 01 30.39395 10 59 25.06 +33 21 46.9 19.4 V 703 – Catalina Sky Survey MPS 97657
2004 01 31.36259 10 58 55.89 +33 27 11.9 19.8   704 – Lincoln Laboratory ETS, New Mexico MPS 97657
2004 01 31.38828 10 58 55.06 +33 27 20.5 19.0   704 – Lincoln Laboratory ETS, New Mexico MPS 97657
2004 01 31.40236 10 58 54.50 +33 27 24.7 19.6   704 – Lincoln Laboratory ETS, New Mexico MPS 97657
2004 02 02.34497 10 57 48.83 +33 37 51.3 18.8   704 – Lincoln Laboratory ETS, New Mexico MPS 98647
2004 02 02.35772 10 57 48.33 +33 37 53.8 19.0   704 – Lincoln Laboratory ETS, New Mexico MPS 98647
2004 02 02.37026 10 57 47.86 +33 37 58.7 19.2   704 – Lincoln Laboratory ETS, New Mexico MPS 98647
2004 02 11.34550 10 50 51.19 +34 15 37.6 18.5   704 – Lincoln Laboratory ETS, New Mexico MPS 98647
2004 02 11.35743 10 50 50.49 +34 15 39.3 19.1   704 – Lincoln Laboratory ETS, New Mexico MPS 98647
2004 02 11.36940 10 50 49.77 +34 15 41.5 18.9   704 – Lincoln Laboratory ETS, New Mexico MPS 98647
2004 02 11.38147 10 50 49.06 +34 15 43.6 19.1   704 – Lincoln Laboratory ETS, New Mexico MPS 98647
2004 02 11.39350 10 50 48.33 +34 15 46.5 18.8   704 – Lincoln Laboratory ETS, New Mexico MPS 98647
2004 02 14.10766 10 48 11.67 +34 22 36.1 17.6 R 201 – Jonathan B. Postel Observatory MPS 98647
2004 02 14.14602 10 48 09.27 +34 22 40.3 17.4 R 201 – Jonathan B. Postel Observatory MPS 98647
2004 02 14.18436 10 48 06.89 +34 22 44.4 17.7 R 201 – Jonathan B. Postel Observatory MPS 98647
2004 02 26.32478 10 34 55.52 +34 18 39.8 16.1 V 703 – Catalina Sky Survey MPS 99975
2004 02 26.33616 10 34 54.73 +34 18 38.0 16.2 V 703 – Catalina Sky Survey MPS 99975
2004 02 26.34731 10 34 53.89 +34 18 36.0 17.8 V 703 – Catalina Sky Survey MPS 99975
2004 02 26.35774 10 34 53.17 +34 18 34.4 17.8 V 703 – Catalina Sky Survey MPS 99975
2004 03 17.21600 10 16 12.28 +31 57 27.5 17.5   644 – Palomar Mountain/NEAT MPS 101050
2004 03 17.23926 10 16 11.27 +31 57 12.8 17.6   644 – Palomar Mountain/NEAT MPS 101050
2004 03 17.26071 10 16 10.35 +31 56 58.8 17.6   644 – Palomar Mountain/NEAT MPS 101050
2004 03 25.22820 10 12 08.57 +30 21 18.1 19.5   704 – Lincoln Laboratory ETS, New Mexico MPS 102028
2004 03 25.23884 10 12 08.39 +30 21 09.6 18.6   704 – Lincoln Laboratory ETS, New Mexico MPS 102028
2004 03 25.24955 10 12 08.14 +30 21 01.5 18.5   704 – Lincoln Laboratory ETS, New Mexico MPS 102028
2004 03 25.26030 10 12 07.86 +30 20 53.0 18.5   704 – Lincoln Laboratory ETS, New Mexico MPS 102028
2004 03 25.27088 10 12 07.60 +30 20 44.4 18.7   704 – Lincoln Laboratory ETS, New Mexico MPS 102028
2004 04 14.18387 10 12 52.78 +25 27 02.4 19.0 R 703 – Catalina Sky Survey MPS 104177
2004 04 14.18936 10 12 52.83 +25 26 55.6 19.2   704 – Lincoln Laboratory ETS, New Mexico MPS 104177
2004 04 14.19544 10 12 53.03 +25 26 49.8 19.2 R 703 – Catalina Sky Survey MPS 104177
2004 04 14.20004 10 12 53.08 +25 26 45.3 19.5   704 – Lincoln Laboratory ETS, New Mexico MPS 104177
2004 04 14.20709 10 12 53.11 +25 26 38.8 18.5 R 703 – Catalina Sky Survey MPS 104177
